RH
14 13 16 18 24 31 63 84 91 94 96 97 98 98 98 98 98 96 96 90 91 95 97 97 98 97 98 98 98 98 97 95
15 14 26 27 35 46 87 92 95 96 98 98 98 97 98 98 98 96 96 95 93 96 96 97 96 96 96 96 98 97 99 96
16 28 52 65 59 61 84 89 98 94 94 96 98 98 97 94 97 97 96 95 95 94 95 96 96 97 97 98 95 97 97 95
17 40 81 83 83 85 77 79 90 96 92 99 99 99 99 100 99 98 97 96 96 94 94 95 96 96 98 97 95 93 96 97
19 59 81 77 75 76 79 81 87 83 76 74 90 98 98 97 96 95 96 97 98 96 96 95 96 96 95 95 95 93 91 96
24 56 68 71 72 76 79 77 86 90 92 82 90 90 96 97 98 98 98 97 96 96 97 96 96 95 94 95 97 95 92 92
36 69 69 80 75 77 85 82 87 89 89 90 92 93 96 98 99 99 98 97 98 96 94 94 94 95 95 96 94 94 95 92
37 73 78 75 77 73 74 75 80 86 92 94 94 94 92 96 97 98 96 95 98 99 97 97 96 94 93 94 95 95 95 95
43 66 71 72 79 76 68 69 76 80 81 85 88 91 97 97 96 98 98 98 98 97 98 98 96 95 95 96 97 96 96 96
72 74 77 82 86 82 75 72 76 80 84 83 87 90 90 94 96 97 98 97 96 96 97 97 97 98 97 97 97 98 98 96
83 83 84 84 81 76 78 76 79 78 80 84 87 91 92 94 97 98 97 97 98 97 97 98 98 97 98 98 98 97 98 98
90 88 82 79 75 74 77 76 75 79 81 83 90 92 92 91 91 92 93 97 96 98 96 97 97 98 98 98 98 97 98 96
89 90 87 83 76 74 75 74 73 79 83 86 89 90 88 90 90 88 90 93 94 96 98 97 97 96 97 97 98 97 97 97
90 90 85 81 74 71 71 72 76 80 84 87 86 86 88 89 85 88 86 88 90 92 97 98 98 98 98 97 96 97 97 96
82 82 84 78 72 70 69 76 79 82 83 85 87 85 82 83 84 86 87 86 88 86 93 96 96 97 98 98 98 98 97 97
84 81 72 67 67 67 69 73 78 78 80 84 82 82 81 82 84 84 84 87 85 85 88 95 97 97 97 97 96 96 96 96
62 67 65 66 65 66 68 72 74 76 81 79 77 78 79 82 84 86 86 89 89 89 90 89 98 97 100 100 98 96 96 97
61 63 66 68 68 66 73 74 72 76 76 73 75 77 80 82 81 83 84 87 90 92 92 92 96 97 100 100 100 95 96 96
63 64 65 66 65 69 72 70 73 76 76 75 75 78 82 82 83 85 88 86 91 94 94 97 98 98 100 100 100 99 100 100
Wind_Speed
9 7 9 12 11 15 17 15 16 14 8 7 6 7 8 7 8 9 12 12 14 12 8 9 10 8 8 8 9 4 4 6
8 9 8 9 7 12 10 12 12 12 10 10 7 9 8 7 8 11 11 12 15 14 10 11 11 12 12 12 6 9 2 5
8 8 3 3 5 10 16 15 14 12 10 7 3 5 5 9 7 8 11 13 14 13 12 11 12 9 11 11 12 6 3 8
9 6 2 7 5 4 7 9 9 7 7 5 2 4 3 3 4 5 8 10 11 13 13 11 12 10 10 13 13 14 8 7
9 4 4 9 5 6 6 8 9 7 8 5 4 3 3 4 6 8 8 10 10 13 12 12 12 10 11 12 12 12 12 9
11 10 11 10 10 8 6 6 8 7 7 9 6 3 1 0 2 5 8 7 11 13 13 15 13 11 13 14 12 11 11 11
10 4 9 3 9 11 6 10 8 8 7 6 11 7 2 2 2 4 5 7 6 12 14 14 14 13 13 13 14 16 13 11
10 9 8 8 7 12 12 12 7 6 8 6 9 7 3 3 4 4 5 6 5 8 12 13 12 14 13 12 13 14 13 12
11 15 12 10 7 8 11 16 12 6 9 8 10 8 4 3 3 3 4 5 5 6 8 10 11 13 12 14 11 11 13 11
6 8 11 8 6 7 10 12 14 12 10 8 8 5 5 4 5 4 3 4 5 6 8 9 11 12 13 13 10 12 11 11
16 9 9 8 10 10 11 16 15 11 8 6 4 4 5 5 5 5 5 5 5 6 8 8 10 11 12 13 10 11 11 9
12 9 15 15 13 15 14 18 15 8 6 5 4 6 6 5 5 6 8 7 6 6 9 10 11 12 11 12 11 11 13 12
12 11 19 16 16 17 16 16 11 8 9 7 7 6 7 6 6 8 8 8 10 7 7 9 10 12 13 13 12 11 13 13
14 16 15 13 14 12 11 12 12 12 10 10 9 9 7 7 9 8 9 10 11 11 6 8 9 11 12 13 13 12 12 13
16 13 13 12 11 12 12 12 12 11 10 10 9 9 9 9 8 8 9 8 9 10 10 9 11 11 12 11 12 11 10 10
15 15 12 14 15 13 14 11 10 11 10 9 10 10 10 10 9 9 9 9 9 10 12 11 10 11 10 12 12 11 11 10
18 17 16 15 15 14 12 11 11 10 9 10 11 11 10 10 11 11 11 10 10 11 10 14 10 9 14 16 14 11 11 10
15 14 13 13 12 13 13 12 11 10 10 10 11 11 12 11 11 12 12 14 12 12 12 14 13 12 15 17 17 11 11 10
13 11 10 10 11 12 12 11 10 10 10 11 12 12 12 12 12 12 13 13 12 10 11 13 15 8 12 17 17 8 7 5
Wind_Direction
275 264 246 262 225 209 206 193 190 182 172 149 157 168 182 181 187 190 189 200 196 192 185 180 174 183 182 179 181 178 180 166
272 285 294 274 224 183 179 180 177 164 170 171 173 183 190 182 193 188 184 197 199 196 192 187 186 190 190 181 156 173 130 154
297 289 352 356 307 239 166 180 171 174 172 170 156 165 195 192 187 189 189 195 199 200 197 192 186 191 187 180 170 156 146 170
282 278 167 88 25 14 118 132 130 141 151 127 111 89 83 130 180 201 203 195 202 200 198 195 185 191 195 185 179 174 174 185
271 200 143 124 127 73 73 113 122 132 141 138 134 146 165 194 194 206 204 197 197 198 193 199 186 188 196 194 185 186 175 185
253 210 166 170 140 132 121 98 90 86 100 112 105 102 275 345 176 196 209 211 205 203 194 192 191 191 194 190 184 193 192 177
263 214 126 169 132 120 95 101 92 79 63 100 98 89 24 318 264 225 221 229 215 209 202 197 193 188 190 195 193 191 195 189
247 162 167 158 143 122 122 102 105 125 112 75 99 92 119 220 242 229 239 244 234 219 195 196 191 191 191 191 195 194 192 196
216 184 167 145 140 112 122 134 114 66 70 89 59 43 22 329 284 244 219 216 232 234 203 187 188 184 189 185 192 192 191 203
353 137 137 112 97 79 93 72 72 60 53 35 58 41 19 326 321 294 249 235 243 234 218 197 186 181 183 188 189 189 188 199
6 25 41 66 77 76 71 72 64 36 23 21 47 39 14 346 333 329 305 278 255 224 218 208 188 190 192 188 194 184 189 195
351 58 65 56 48 56 52 51 47 23 350 358 23 35 3 348 340 340 337 311 277 250 226 215 201 192 190 192 193 182 196 202
353 51 64 56 43 37 35 39 18 8 6 353 15 16 5 349 354 348 332 324 316 269 235 216 213 203 191 196 196 192 198 205
31 26 56 53 45 33 29 35 10 3 342 352 4 8 1 349 346 340 339 335 320 306 244 220 213 207 196 197 197 196 200 205
24 26 32 39 40 29 19 27 9 346 346 341 354 350 341 343 336 335 327 320 308 304 294 236 216 206 204 200 194 188 197 198
21 8 12 20 16 17 20 14 354 351 337 330 339 341 339 334 334 330 319 315 314 309 312 265 221 209 207 199 193 193 198 206
11 12 11 14 14 6 3 358 352 347 335 331 340 336 333 333 331 327 323 322 325 321 311 305 233 211 204 199 183 189 190 197
14 8 7 3 359 357 355 349 349 336 337 341 337 327 322 332 326 326 326 326 323 322 312 305 272 222 203 202 199 187 186 197
2 359 353 0 358 349 339 339 341 330 337 340 335 324 325 328 327 325 322 321 316 311 307 304 288 236 188 196 194 184 168 157